User: anonymous
Location: Chenango Forks
(42.2242°N, 75.8278°W)
Time: 07:41:49
(UTC-04:00)
Language:

Okean 3 Rocket - Orbit

View from above orbital plane
View from above orbital plane
View from above satellite
View from above satellite

Ground track
Ground track

The orbit data is extracted from the following two-line orbital elements,

1 21398U 91039B   14260.63178660  .00000421  00000-0  53456-4 0  8426
2 21398 082.5203 080.1570 0020819 228.0083 176.4085 14.79206667255527
Epoch (UTC): 17 September 2014 15:09:46
Eccentricity: 0.0020819
inclination: 82.5203°
perigee height: 617 km
apogee height: 646 km
right ascension of ascending node: 80.1570°
argument of perigee: 228.0083°
revolutions per day: 14.79206667
mean anomaly at epoch: 176.4085°
orbit number at epoch: 25552

The dashed part of the orbit path shows where the satellite is in the earth's shadow,  

DLR